• In Netherlands
  • List of Countries
  • For 7 days
  • Water Temperature
  • Satellite Maps
  • Weather Map
  • Weather Widgets
  • user-avatar
    Login

    Hourly Weather Eisenstadt

    Today, 29 March, Wednesday

    Time Temperature Precipitation Wind Pressure Humidity
    00:00 +7°C° 0 mm 2 mps 726 mmHg 77%
    01:00 +7°C° 0 mm 2 mps 726 mmHg 79%
    02:00 +7°C° 0 mm 2 mps 727 mmHg 80%
    03:00 +7°C° 0 mm 2 mps 727 mmHg 81%
    04:00 +7°C° 0 mm 2 mps 727 mmHg 83%
    05:00 +8°C° 0 mm 2 mps 727 mmHg 80%
    06:00 +8°C° 0 mm 2 mps 727 mmHg 78%
    07:00 +9°C° 0 mm 2 mps 728 mmHg 75%
    08:00 +11°C° 0 mm 3 mps 728 mmHg 68%
    09:00 +14°C° 0 mm 3 mps 728 mmHg 61%
    10:00 +17°C° 0 mm 4 mps 728 mmHg 54%
    11:00 +18°C° 0 mm 4 mps 728 mmHg 51%
    12:00 +18°C° 0 mm 4 mps 728 mmHg 49%
    13:00 +19°C° 0 mm 4 mps 728 mmHg 46%
    14:00 +19°C° 0 mm 4 mps 727 mmHg 48%
    15:00 +18°C° 0 mm 4 mps 727 mmHg 50%
    16:00 +18°C° 0 mm 4 mps 727 mmHg 52%
    17:00 +15°C° 0 mm 4 mps 727 mmHg 59%
    18:00 +13°C° 0 mm 3 mps 727 mmHg 67%
    19:00 +11°C° 0 mm 3 mps 727 mmHg 74%
    20:00 +11°C° 0 mm 3 mps 727 mmHg 76%
    21:00 +10°C° 0 mm 3 mps 727 mmHg 77%
    22:00 +10°C° 0 mm 3 mps 728 mmHg 79%
    23:00 +9°C° 0 mm 3 mps 728 mmHg 80%

    Tomorrow, 30 March, Thursday

    Time Temperature Precipitation Wind Pressure Humidity
    00:00 +9°C° 0 mm 3 mps 728 mmHg 82%
    01:00 +9°C° 0 mm 3 mps 729 mmHg 83%
    02:00 +8°C° 0 mm 3 mps 729 mmHg 84%
    03:00 +8°C° 0 mm 3 mps 728 mmHg 85%
    04:00 +8°C° 0 mm 3 mps 728 mmHg 86%
    05:00 +8°C° 0 mm 3 mps 729 mmHg 85%
    06:00 +9°C° 0 mm 3 mps 729 mmHg 84%
    07:00 +9°C° 0 mm 2 mps 729 mmHg 83%
    08:00 +11°C° 0 mm 3 mps 729 mmHg 77%
    09:00 +12°C° 0 mm 3 mps 730 mmHg 71%
    10:00 +14°C° 0 mm 3 mps 730 mmHg 66%
    11:00 +14°C° 0.1 mm 3 mps 730 mmHg 62%
    12:00 +16°C° 0.1 mm 3 mps 730 mmHg 59%
    13:00 +17°C° 0.1 mm 3 mps 730 mmHg 56%
    14:00 +17°C° 0 mm 3 mps 729 mmHg 57%
    15:00 +17°C° 0 mm 3 mps 729 mmHg 59%
    16:00 +16°C° 0 mm 2 mps 729 mmHg 60%
    17:00 +15°C° 0 mm 2 mps 729 mmHg 68%
    18:00 +13°C° 0 mm 1 mps 729 mmHg 75%
    19:00 +11°C° 0 mm 1 mps 729 mmHg 83%
    20:00 +11°C° 0 mm 1 mps 729 mmHg 84%
    21:00 +10°C° 0 mm 1 mps 729 mmHg 85%
    22:00 +10°C° 0 mm 1 mps 729 mmHg 87%
    23:00 +10°C° 0 mm 1 mps 729 mmHg 87%

    Day after tomorrow, 31 March, Friday

    Time Temperature Precipitation Wind Pressure Humidity
    00:00 +10°C° 0 mm 1 mps 729 mmHg 87%
    01:00 +10°C° 0 mm 1 mps 729 mmHg 87%
    02:00 +10°C° 0 mm 1 mps 729 mmHg 88%
    03:00 +9°C° 0 mm 1 mps 728 mmHg 89%
    04:00 +8°C° 0 mm 2 mps 728 mmHg 90%
    05:00 +8°C° 0 mm 2 mps 728 mmHg 88%
    06:00 +9°C° 0 mm 2 mps 728 mmHg 87%
    07:00 +9°C° 0 mm 2 mps 728 mmHg 86%
    08:00 +11°C° 0 mm 3 mps 728 mmHg 79%
    09:00 +13°C° 0 mm 3 mps 728 mmHg 73%
    10:00 +15°C° 0 mm 4 mps 728 mmHg 67%
    11:00 +15°C° 0 mm 4 mps 727 mmHg 64%
    12:00 +16°C° 0 mm 5 mps 727 mmHg 61%
    13:00 +17°C° 0 mm 5 mps 727 mmHg 58%
    14:00 +17°C° 0 mm 5 mps 726 mmHg 59%
    15:00 +17°C° 0 mm 5 mps 726 mmHg 59%
    16:00 +17°C° 0 mm 5 mps 725 mmHg 60%
    17:00 +15°C° 0 mm 5 mps 725 mmHg 67%
    18:00 +13°C° 0 mm 4 mps 725 mmHg 74%
    19:00 +12°C° 0 mm 4 mps 724 mmHg 81%
    20:00 +11°C° 0 mm 4 mps 724 mmHg 81%
    21:00 +11°C° 0 mm 4 mps 724 mmHg 82%
    22:00 +10°C° 0 mm 4 mps 724 mmHg 83%
    23:00 +9°C° 0 mm 3 mps 724 mmHg 83%

    1 April, Saturday

    Time Temperature Precipitation Wind Pressure Humidity
    00:00 +9°C° 0 mm 3 mps 724 mmHg 84%
    01:00 +8°C° 0 mm 3 mps 723 mmHg 84%
    02:00 +8°C° 0 mm 3 mps 723 mmHg 85%
    03:00 +8°C° 0 mm 3 mps 723 mmHg 87%
    04:00 +7°C° 0 mm 3 mps 722 mmHg 89%
    05:00 +8°C° 0 mm 3 mps 722 mmHg 88%
    06:00 +8°C° 0 mm 3 mps 722 mmHg 87%
    07:00 +9°C° 0 mm 3 mps 722 mmHg 86%
    08:00 +10°C° 0 mm 3 mps 722 mmHg 79%
    09:00 +12°C° 0 mm 4 mps 723 mmHg 73%
    10:00 +14°C° 0 mm 4 mps 723 mmHg 66%
    11:00 +15°C° 0 mm 4 mps 722 mmHg 62%
    12:00 +16°C° 0 mm 5 mps 722 mmHg 59%
    13:00 +19°C° 0 mm 5 mps 722 mmHg 55%
    14:00 +19°C° 0 mm 5 mps 722 mmHg 55%
    15:00 +19°C° 0 mm 5 mps 721 mmHg 54%
    16:00 +19°C° 0 mm 5 mps 721 mmHg 54%
    17:00 +17°C° 0 mm 4 mps 721 mmHg 62%
    18:00 +14°C° 0 mm 4 mps 721 mmHg 70%
    19:00 +12°C° 0 mm 3 mps 721 mmHg 77%
    20:00 +11°C° 0 mm 3 mps 721 mmHg 79%
    21:00 +10°C° 0 mm 3 mps 721 mmHg 81%
    22:00 +9°C° 0 mm 3 mps 721 mmHg 82%
    23:00 +9°C° 0 mm 3 mps 721 mmHg 82%

    2 April, Sunday

    Time Temperature Precipitation Wind Pressure Humidity
    00:00 +8°C° 0 mm 3 mps 722 mmHg 82%
    01:00 +8°C° 0 mm 3 mps 722 mmHg 82%
    02:00 +7°C° 0 mm 3 mps 722 mmHg 82%
    03:00 +7°C° 0 mm 2 mps 722 mmHg 82%
    04:00 +7°C° 0 mm 2 mps 722 mmHg 81%
    05:00 +7°C° 0 mm 2 mps 722 mmHg 78%
    06:00 +8°C° 0 mm 2 mps 723 mmHg 75%
    07:00 +9°C° 0 mm 2 mps 723 mmHg 72%
    08:00 +12°C° 0 mm 2 mps 724 mmHg 64%
    09:00 +14°C° 0 mm 2 mps 724 mmHg 57%
    10:00 +17°C° 0 mm 2 mps 725 mmHg 49%
    11:00 +17°C° 0 mm 2 mps 725 mmHg 47%
    12:00 +18°C° 0 mm 2 mps 725 mmHg 44%
    13:00 +19°C° 0 mm 3 mps 725 mmHg 42%
    14:00 +19°C° 0 mm 3 mps 725 mmHg 43%
    15:00 +19°C° 0 mm 3 mps 725 mmHg 44%
    16:00 +19°C° 0 mm 3 mps 724 mmHg 46%
    17:00 +17°C° 0 mm 2 mps 724 mmHg 55%
    18:00 +14°C° 0 mm 2 mps 724 mmHg 64%
    19:00 +12°C° 0 mm 2 mps 724 mmHg 73%
    20:00 +10°C° 0 mm 2 mps 725 mmHg 75%
    21:00 +11°C° 0 mm 1 mps 725 mmHg 77%
    22:00 +10°C° 0 mm 1 mps 725 mmHg 79%
    23:00 +10°C° 0 mm 1 mps 725 mmHg 80%

    3 April, Monday

    Time Temperature Precipitation Wind Pressure Humidity
    00:00 +9°C° 0 mm 1 mps 725 mmHg 82%
    01:00 +9°C° 0 mm 1 mps 725 mmHg 84%
    02:00 +9°C° 0 mm 1 mps 726 mmHg 85%
    03:00 +9°C° 0 mm 1 mps 726 mmHg 85%
    04:00 +8°C° 0 mm 2 mps 726 mmHg 85%
    05:00 +9°C° 0 mm 2 mps 726 mmHg 84%
    06:00 +9°C° 0 mm 2 mps 726 mmHg 83%
    07:00 +10°C° 0 mm 2 mps 726 mmHg 82%
    08:00 +13°C° 0.1 mm 2 mps 727 mmHg 76%
    09:00 +14°C° 0.1 mm 3 mps 727 mmHg 69%
    10:00 +17°C° 0.1 mm 3 mps 727 mmHg 63%
    11:00 +17°C° 0.5 mm 3 mps 727 mmHg 63%
    12:00 +17°C° 0.5 mm 3 mps 727 mmHg 62%
    13:00 +18°C° 0.5 mm 3 mps 726 mmHg 62%
    14:00 +17°C° 0.5 mm 3 mps 726 mmHg 63%
    15:00 +17°C° 0.5 mm 3 mps 726 mmHg 65%
    16:00 +17°C° 0.5 mm 3 mps 725 mmHg 67%
    17:00 +14°C° 0.2 mm 3 mps 725 mmHg 73%
    18:00 +13°C° 0.2 mm 3 mps 725 mmHg 80%
    19:00 +12°C° 0.2 mm 2 mps 725 mmHg 87%
    20:00 +12°C° 0.4 mm 2 mps 725 mmHg 88%
    21:00 +10°C° 0.4 mm 2 mps 725 mmHg 89%
    22:00 +10°C° 0.4 mm 3 mps 725 mmHg 91%
    23:00 +10°C° 0.1 mm 3 mps 725 mmHg 91%
    Show more